This is the latest recevied weather packets stored in our database for station/object WD7OO. If no packets are shown the sender has not sent any weather packets the latest 10 day(s).
| Time | Temp. | Humidity | Pressure | Rain* | Wind** | Luminosity | Snow |
|---|---|---|---|---|---|---|---|
| 1777558242 | 7.78° C | 85% | 1017.5 hPa | 0 mm | - | 229 W/m² | - |
| 1777557938 | 8.33° C | 84% | 1017.6 hPa | 0 mm | - | 127 W/m² | - |
| 1777557636 | 7.78° C | 85% | 1017.6 hPa | 0 mm | - | 279 W/m² | - |
| 1777557332 | 7.22° C | 86% | 1017.4 hPa | 0 mm | - | 510 W/m² | - |
| 1777557028 | 7.22° C | 87% | 1017.4 hPa | 0 mm | - | 142 W/m² | - |
| 1777556724 | 6.67° C | 89% | 1017.4 hPa | 0 mm | - | 572 W/m² | - |
| 1777556421 | 6.67° C | 89% | 1017.4 hPa | 0 mm | - | 197 W/m² | - |
| 1777556121 | 6.67° C | 90% | 1017.6 hPa | 0 mm | - | 170 W/m² | - |
| 1777555816 | 6.11° C | 91% | 1017.7 hPa | 0 mm | - | 178 W/m² | - |
| 1777555512 | 6.11° C | 94% | 1017.5 hPa | 0 mm | - | 226 W/m² | - |
| 1777555209 | 5.56° C | 95% | 1017.4 hPa | 0 mm | - | 164 W/m² | - |
| 1777554906 | 5.56° C | 97% | 1017.5 hPa | 0 mm | - | 165 W/m² | - |
| 1777554602 | 5.56° C | 99% | 1017.3 hPa | 0 mm | - | 185 W/m² | - |
| 1777554299 | 5° C | 99% | 1017.4 hPa | 0 mm | - | 147 W/m² | - |
| 1777553996 | 5° C | 99% | 1017.4 hPa | 0 mm | - | 214 W/m² | - |
| 1777553692 | 5° C | 99% | 1017.3 hPa | 0 mm | - | 162 W/m² | - |
| 1777553389 | 5° C | 99% | 1017.3 hPa | 0 mm | - | 124 W/m² | - |
| 1777553086 | 5° C | 99% | 1017.3 hPa | 0 mm | - | 121 W/m² | - |
| 1777552785 | 4.44° C | 99% | 1017.3 hPa | 0 mm | - | 121 W/m² | - |
| 1777552481 | 3.89° C | 99% | 1017.3 hPa | 0 mm | - | 132 W/m² | - |
| 1777552178 | 3.89° C | 99% | 1017.3 hPa | 0 mm | - | 103 W/m² | - |
| 1777551875 | 3.89° C | 99% | 1017.4 hPa | 0 mm | - | 76 W/m² | - |
| 1777551573 | 3.33° C | 99% | 1017.3 hPa | 0 mm | - | 72 W/m² | - |
| 1777551269 | 3.33° C | 99% | 1017.2 hPa | 0 mm | - | 75 W/m² | - |
| 1777550966 | 3.33° C | 99% | 1017.1 hPa | 0 mm | - | 73 W/m² | - |
* Rain latest hour (hover to see other rain measurements)
** Current wind speed in m/s (hover to see current wind gust speed)